Bangkok (Don Mueang), Thailand

3:59 PM +07 on February 21, 2018 (GMT +0700)
Bangkok International

Weather History for VTBD - April, 2013

Change the Weather History Date:

Monday, April 22, 2013

  Actual Average Record
Temperature  
Mean Temperature 90 °F -  
Max Temperature 97 °F 92 °F 102 °F (1997)
Min Temperature 83 °F 78 °F 77 °F (1999)
Cooling Degree Days 25    
Growing Degree Days 40 (Base 50)    
Moisture  
Dew Point 76 °F    
Average Humidity 64    
Maximum Humidity 84    
Minimum Humidity 39    
Precipitation  
Precipitation 0.08 in 0.18 in - ()
Sea Level Pressure  
Sea Level Pressure 29.78 in    
Wind  
Wind Speed 6 mph ()    
Max Wind Speed 10 mph    
Max Gust Speed -    
Visibility 6.0 miles    
Events Rain    
Averages and records for this station are not official NWS values.
T = Trace of Precipitation, MM = Missing Value Source: Averaged Metar Reports

Daily Weather History Graph

Daily Weather History Graph

Search for Another Location

Airport or City:

Trip Planner

Search our weather history database for the weather conditions in past years. The results will help you decide how hot, cold, wet, or windy it might be!

Date:

Astronomy

Apr. 22, 2013 Rise Set
Actual Time 6:00 AM +07 6:32 PM +07
Civil Twilight 5:38 AM +07 6:53 PM +07
Nautical Twilight 5:12 AM +07 7:19 PM +07
Astronomical Twilight 4:47 AM +07 7:45 PM +07
Moon 3:20 PM +07 (4/22) 2:59 AM +07 (4/22)
Length of Visible Light 13h 15m
Length of Day
12h 31m
Waxing Gibbous, 84% of the Moon is Illuminated
Apr 22
Waxing Gibbous
Apr 26
Full
May 2
Last Quarter
May 10
New
May 18
First Quarter

Hourly Weather History & Observations

Time (+07) Temp. Heat Index Dew Point Humidity Pressure Visibility Wind Dir Wind Speed Gust Speed Precip Events Conditions
12:00 AM 87.8 °F 99.7 °F 77.0 °F 70% 29.80 in 6.2 mi SW 10.4 mph - N/A   Scattered Clouds
12:30 AM 87.8 °F 102.5 °F 78.8 °F 75% 29.80 in 6.2 mi South 6.9 mph - N/A   Scattered Clouds
1:00 AM 87 °F - 78 °F 69% 29.81 in 6 mi South 8.1 mph - -   Scattered Clouds
1:00 AM 87.8 °F 102.5 °F 78.8 °F 75% 29.80 in 6.2 mi South 8.1 mph - N/A   Scattered Clouds
1:30 AM 86.0 °F 99.3 °F 78.8 °F 79% 29.80 in 6.2 mi SSW 9.2 mph - N/A   Scattered Clouds
2:00 AM 86.0 °F 99.3 °F 78.8 °F 79% 29.80 in 6.2 mi South 9.2 mph - N/A   Scattered Clouds
2:30 AM 86.0 °F 99.3 °F 78.8 °F 79% 29.77 in 6.2 mi South 6.9 mph - N/A   Scattered Clouds
3:00 AM 86.0 °F 99.3 °F 78.8 °F 79% 29.77 in 6.2 mi SE 3.5 mph - N/A   Scattered Clouds
3:30 AM 86.0 °F 99.3 °F 78.8 °F 79% 29.77 in 6.2 mi SSE 5.8 mph - N/A   Mostly Cloudy
4:00 AM 86.0 °F 99.3 °F 78.8 °F 79% 29.77 in 6.2 mi East 6.9 mph - N/A   Mostly Cloudy
4:30 AM 84.2 °F 96.1 °F 78.8 °F 84% 29.77 in 6.2 mi ESE 5.8 mph - N/A   Mostly Cloudy
5:00 AM 84.2 °F 94.1 °F 77.0 °F 79% 29.80 in 5.6 mi East 6.9 mph - N/A   Mostly Cloudy
5:30 AM 84.2 °F 94.1 °F 77.0 °F 79% 29.80 in 5.0 mi ESE 4.6 mph - N/A   Mostly Cloudy
6:00 AM 84.2 °F 94.1 °F 77.0 °F 79% 29.80 in 5.0 mi ESE 3.5 mph - N/A   Mostly Cloudy
6:30 AM 84.2 °F 96.1 °F 78.8 °F 84% 29.83 in 5.0 mi South 4.6 mph - N/A   Mostly Cloudy
7:00 AM 84 °F - 78 °F 79% 29.84 in 5 mi SE 2.3 mph - -   Mist
7:00 AM 84.2 °F 96.1 °F 78.8 °F 84% 29.83 in 5.0 mi SE 2.3 mph - N/A   Mostly Cloudy
7:30 AM 84.2 °F 96.1 °F 78.8 °F 84% 29.83 in 5.0 mi SSW 2.3 mph - N/A   Mostly Cloudy
8:00 AM 86.0 °F 96.9 °F 77.0 °F 74% 29.83 in 6.2 mi SSE 5.8 mph - N/A   Mostly Cloudy
8:30 AM 87.8 °F 99.7 °F 77.0 °F 70% 29.86 in 6.2 mi ESE 6.9 mph - N/A   Mostly Cloudy
9:00 AM 89.6 °F 102.2 °F 77.0 °F 66% 29.83 in 6.2 mi South 5.8 mph - N/A   Mostly Cloudy
9:30 AM 89.6 °F 102.2 °F 77.0 °F 66% 29.86 in 6.2 mi South 5.8 mph - N/A   Mostly Cloudy
10:00 AM 89.6 °F 102.2 °F 77.0 °F 66% 29.83 in 6.2 mi SSE 3.5 mph - N/A   Mostly Cloudy
10:30 AM 91.4 °F 105.1 °F 77.0 °F 63% 29.83 in 6.2 mi West 3.5 mph - N/A   Mostly Cloudy
11:00 AM 91.4 °F 105.1 °F 77.0 °F 63% 29.83 in 6.2 mi SW 3.5 mph - N/A   Mostly Cloudy
11:30 AM 91.4 °F 105.1 °F 77.0 °F 63% 29.83 in 6.2 mi West 4.6 mph - N/A   Mostly Cloudy
12:00 PM 93.2 °F 107.2 °F 77.0 °F 59% 29.83 in 6.2 mi South 3.5 mph - N/A   Mostly Cloudy
12:30 PM 93.2 °F 105.0 °F 75.2 °F 56% 29.80 in 6.2 mi SW 5.8 mph - N/A   Mostly Cloudy
1:00 PM 95 °F - 75 °F 43% 29.79 in 6 mi West 6.9 mph - -   Scattered Clouds
1:00 PM 95.0 °F 107.4 °F 75.2 °F 53% 29.77 in 6.2 mi West 6.9 mph - N/A   Mostly Cloudy
1:30 PM 96.8 °F 109.6 °F 75.2 °F 50% 29.77 in 6.2 mi NW 3.5 mph - N/A   Mostly Cloudy
2:00 PM 96.8 °F 109.6 °F 75.2 °F 50% 29.74 in 6.2 mi West 9.2 mph - N/A   Mostly Cloudy
2:30 PM 96.8 °F 109.6 °F 75.2 °F 50% 29.71 in 6.2 mi NNW 5.8 mph - N/A   Mostly Cloudy
3:00 PM 96.8 °F 109.6 °F 75.2 °F 50% 29.71 in 6.2 mi West 8.1 mph - N/A   Mostly Cloudy
3:30 PM 96.8 °F 107.3 °F 73.4 °F 47% 29.71 in 5.0 mi West 6.9 mph - N/A Rain Light Rain
4:00 PM 93.2 °F 105.0 °F 75.2 °F 56% 29.68 in 6.2 mi WNW 6.9 mph - N/A   Mostly Cloudy
4:30 PM 93.2 °F 105.0 °F 75.2 °F 56% 29.68 in 6.2 mi West 5.8 mph - N/A   Mostly Cloudy
5:00 PM 95.0 °F 104.5 °F 73.4 °F 49% 29.68 in 6.2 mi WSW 6.9 mph - N/A   Mostly Cloudy
5:30 PM 95.0 °F 104.5 °F 73.4 °F 49% 29.71 in 6.2 mi WSW 5.8 mph - N/A   Mostly Cloudy
6:00 PM 93.2 °F 102.4 °F 73.4 °F 52% 29.68 in 6.2 mi South 5.8 mph - N/A   Mostly Cloudy
6:30 PM 93.2 °F 98.8 °F 69.8 °F 46% 29.68 in 6.2 mi SW 9.2 mph - N/A   Mostly Cloudy
7:00 PM 93 °F - 71 °F 39% 29.74 in 6 mi SSW 9.2 mph - -   Partly Cloudy
7:00 PM 93.2 °F 100.5 °F 71.6 °F 49% 29.71 in 6.2 mi SSW 9.2 mph - N/A   Mostly Cloudy
7:30 PM 91.4 °F 98.4 °F 71.6 °F 52% 29.74 in 6.2 mi SSW 9.2 mph - N/A   Mostly Cloudy
8:00 PM 91.4 °F 98.4 °F 71.6 °F 52% 29.77 in 6.2 mi SSW 6.9 mph - N/A   Mostly Cloudy
8:30 PM 89.6 °F 98.2 °F 73.4 °F 59% 29.77 in 6.2 mi South 4.6 mph - N/A   Mostly Cloudy
9:00 PM 89.6 °F 96.2 °F 71.6 °F 55% 29.80 in 6.2 mi South 6.9 mph - N/A   Mostly Cloudy
9:30 PM 89.6 °F 96.2 °F 71.6 °F 55% 29.80 in 6.2 mi South 6.9 mph - N/A   Mostly Cloudy
10:00 PM 87.8 °F 95.6 °F 73.4 °F 62% 29.80 in 6.2 mi South 9.2 mph - N/A   Mostly Cloudy
10:30 PM 87.8 °F 95.6 °F 73.4 °F 62% 29.83 in 6.2 mi South 6.9 mph - N/A   Mostly Cloudy
11:00 PM 87.8 °F 97.6 °F 75.2 °F 66% 29.83 in 6.2 mi South 6.9 mph - N/A   Mostly Cloudy
11:30 PM 87.8 °F 99.7 °F 77.0 °F 70% 29.83 in 6.2 mi ESE 9.2 mph - N/A   Mostly Cloudy